When you browse on this site, cookies collect data to enhance your experience and personalize the content and advertising you see.
Visit our Privacy Policy to learn more. By continuing to use the site, you agree to this use of cookies and data.
  • In Latvia
  • List of Countries
  • For 7 days
  • Water Temperature
  • Satellite Maps
  • Weather Map
  • Weather Widgets
  • user-avatar
    Login

    Hourly Weather Eisenstadt

    Today, 21 January, Monday

    Time Temperature Precipitation Wind Pressure Humidity
    00:00 -3°C° 0 mm 1 mps 723 mmHg 74%
    01:00 -3°C° 0 mm 1 mps 723 mmHg 73%
    02:00 -4°C° 0 mm 1 mps 723 mmHg 73%
    03:00 -4°C° 0 mm 1 mps 723 mmHg 72%
    04:00 -4°C° 0 mm 1 mps 724 mmHg 72%
    05:00 -4°C° 0 mm 1 mps 724 mmHg 71%
    06:00 -4°C° 0 mm 1 mps 724 mmHg 71%
    07:00 -4°C° 0 mm 1 mps 724 mmHg 71%
    08:00 -3°C° 0 mm 1 mps 724 mmHg 66%
    09:00 -2°C° 0 mm 1 mps 724 mmHg 61%
    10:00 -1°C° 0 mm 1 mps 725 mmHg 57%
    11:00 0°C° 0 mm 1 mps 725 mmHg 53%
    12:00 0°C° 0 mm 1 mps 724 mmHg 50%
    13:00 +1°C° 0 mm 1 mps 724 mmHg 46%
    14:00 0°C° 0 mm 1 mps 724 mmHg 49%
    15:00 0°C° 0 mm 1 mps 724 mmHg 52%
    16:00 -1°C° 0 mm 1 mps 724 mmHg 55%
    17:00 -2°C° 0 mm 1 mps 724 mmHg 57%
    18:00 -4°C° 0 mm 0 mps 724 mmHg 59%
    19:00 -4°C° 0 mm 0 mps 724 mmHg 61%
    20:00 -4°C° 0 mm 0 mps 724 mmHg 62%
    21:00 -4°C° 0 mm 0 mps 724 mmHg 63%
    22:00 -5°C° 0 mm 0 mps 724 mmHg 63%
    23:00 -5°C° 0 mm 0 mps 723 mmHg 64%

    Tomorrow, 22 January, Tuesday

    Time Temperature Precipitation Wind Pressure Humidity
    00:00 -5°C° 0 mm 0 mps 723 mmHg 65%
    01:00 -5°C° 0 mm 0 mps 723 mmHg 66%
    02:00 -5°C° 0 mm 0 mps 723 mmHg 67%
    03:00 -5°C° 0 mm 0 mps 722 mmHg 67%
    04:00 -5°C° 0 mm 0 mps 722 mmHg 68%
    05:00 -4°C° 0 mm 1 mps 721 mmHg 69%
    06:00 -4°C° 0 mm 1 mps 721 mmHg 70%
    07:00 -4°C° 0 mm 1 mps 721 mmHg 71%
    08:00 -3°C° 0 mm 1 mps 721 mmHg 68%
    09:00 -2°C° 0 mm 1 mps 720 mmHg 64%
    10:00 -1°C° 0 mm 1 mps 720 mmHg 60%
    11:00 0°C° 0 mm 1 mps 719 mmHg 59%
    12:00 0°C° 0 mm 1 mps 719 mmHg 58%
    13:00 -1°C° 0 mm 2 mps 718 mmHg 56%
    14:00 -2°C° 0 mm 2 mps 717 mmHg 59%
    15:00 -2°C° 0 mm 2 mps 717 mmHg 61%
    16:00 -3°C° 0 mm 2 mps 716 mmHg 63%
    17:00 -1°C° 0 mm 1 mps 715 mmHg 65%
    18:00 -2°C° 0 mm 1 mps 715 mmHg 68%
    19:00 -3°C° 0 mm 1 mps 715 mmHg 70%
    20:00 -3°C° 0 mm 1 mps 714 mmHg 72%
    21:00 -3°C° 0 mm 1 mps 714 mmHg 74%
    22:00 -3°C° 0 mm 1 mps 713 mmHg 76%
    23:00 -3°C° 0 mm 1 mps 713 mmHg 78%

    Day after tomorrow, 23 January, Wednesday

    Time Temperature Precipitation Wind Pressure Humidity
    00:00 -2°C° 0 mm 1 mps 712 mmHg 80%
    01:00 -2°C° 0 mm 1 mps 712 mmHg 82%
    02:00 -2°C° 0.1 mm 1 mps 711 mmHg 85%
    03:00 -2°C° 0.1 mm 1 mps 710 mmHg 88%
    04:00 -2°C° 0.1 mm 1 mps 710 mmHg 90%
    05:00 -2°C° 0.1 mm 1 mps 710 mmHg 91%
    06:00 -2°C° 0.1 mm 1 mps 709 mmHg 92%
    07:00 -2°C° 0.1 mm 1 mps 709 mmHg 94%
    08:00 -2°C° 0.2 mm 1 mps 709 mmHg 93%
    09:00 -1°C° 0.2 mm 1 mps 709 mmHg 92%
    10:00 -3°C° 0.2 mm 2 mps 709 mmHg 92%
    11:00 -3°C° 0.3 mm 2 mps 709 mmHg 91%
    12:00 -3°C° 0.3 mm 2 mps 709 mmHg 90%
    13:00 -2°C° 0.3 mm 2 mps 709 mmHg 89%
    14:00 -2°C° 0.5 mm 2 mps 709 mmHg 91%
    15:00 -2°C° 0.5 mm 2 mps 709 mmHg 92%
    16:00 -3°C° 0.5 mm 2 mps 709 mmHg 94%
    17:00 -3°C° 0.3 mm 2 mps 709 mmHg 94%
    18:00 -3°C° 0.3 mm 2 mps 710 mmHg 94%
    19:00 -1°C° 0.3 mm 1 mps 710 mmHg 94%
    20:00 -1°C° 0 mm 1 mps 711 mmHg 94%
    21:00 -1°C° 0 mm 1 mps 711 mmHg 94%
    22:00 -2°C° 0 mm 1 mps 712 mmHg 94%
    23:00 -1°C° 0 mm 1 mps 712 mmHg 93%

    24 January, Thursday

    Time Temperature Precipitation Wind Pressure Humidity
    00:00 -1°C° 0 mm 1 mps 712 mmHg 92%
    01:00 -1°C° 0 mm 1 mps 713 mmHg 91%
    02:00 -1°C° 0 mm 1 mps 713 mmHg 92%
    03:00 -1°C° 0 mm 1 mps 713 mmHg 92%
    04:00 -2°C° 0 mm 1 mps 713 mmHg 92%
    05:00 -2°C° 0 mm 1 mps 714 mmHg 92%
    06:00 -4°C° 0 mm 2 mps 714 mmHg 92%
    07:00 -5°C° 0 mm 2 mps 714 mmHg 92%
    08:00 -4°C° 0 mm 2 mps 715 mmHg 88%
    09:00 -2°C° 0 mm 2 mps 716 mmHg 84%
    10:00 -1°C° 0 mm 3 mps 716 mmHg 80%
    11:00 0°C° 0 mm 3 mps 716 mmHg 78%
    12:00 -1°C° 0 mm 4 mps 716 mmHg 76%
    13:00 0°C° 0 mm 4 mps 716 mmHg 74%
    14:00 -1°C° 0 mm 4 mps 716 mmHg 76%
    15:00 -1°C° 0 mm 4 mps 716 mmHg 78%
    16:00 -2°C° 0 mm 4 mps 716 mmHg 79%
    17:00 -3°C° 0 mm 4 mps 716 mmHg 79%
    18:00 -3°C° 0 mm 4 mps 717 mmHg 79%
    19:00 -4°C° 0 mm 4 mps 717 mmHg 78%
    20:00 -4°C° 0 mm 4 mps 717 mmHg 77%
    21:00 -5°C° 0 mm 5 mps 718 mmHg 75%
    22:00 -4°C° 0 mm 5 mps 718 mmHg 73%
    23:00 -5°C° 0 mm 5 mps 718 mmHg 73%

    25 January, Friday

    Time Temperature Precipitation Wind Pressure Humidity
    00:00 -5°C° 0 mm 5 mps 718 mmHg 72%
    01:00 -5°C° 0 mm 6 mps 718 mmHg 72%
    02:00 -5°C° 0 mm 5 mps 718 mmHg 73%
    03:00 -5°C° 0 mm 5 mps 718 mmHg 73%
    04:00 -6°C° 0 mm 5 mps 717 mmHg 74%
    05:00 -6°C° 0 mm 5 mps 718 mmHg 73%
    06:00 -6°C° 0 mm 6 mps 718 mmHg 72%
    07:00 -6°C° 0 mm 6 mps 718 mmHg 72%
    08:00 -6°C° 0 mm 7 mps 718 mmHg 70%
    09:00 -4°C° 0 mm 7 mps 719 mmHg 68%
    10:00 -5°C° 0 mm 8 mps 719 mmHg 66%
    11:00 -5°C° 0 mm 8 mps 719 mmHg 65%
    12:00 -4°C° 0 mm 8 mps 719 mmHg 64%
    13:00 -3°C° 0 mm 7 mps 719 mmHg 63%
    14:00 -3°C° 0 mm 7 mps 719 mmHg 63%
    15:00 -4°C° 0 mm 7 mps 719 mmHg 64%
    16:00 -4°C° 0 mm 7 mps 719 mmHg 65%
    17:00 -5°C° 0 mm 6 mps 719 mmHg 66%
    18:00 -5°C° 0 mm 6 mps 719 mmHg 68%
    19:00 -6°C° 0 mm 6 mps 719 mmHg 70%
    20:00 -6°C° 0 mm 6 mps 720 mmHg 70%
    21:00 -6°C° 0 mm 6 mps 720 mmHg 70%
    22:00 -6°C° 0 mm 6 mps 720 mmHg 70%
    23:00 -6°C° 0 mm 6 mps 720 mmHg 71%

    26 January, Saturday

    Time Temperature Precipitation Wind Pressure Humidity
    00:00 -6°C° 0 mm 6 mps 720 mmHg 71%
    01:00 -6°C° 0 mm 6 mps 720 mmHg 71%
    02:00 -6°C° 0 mm 5 mps 720 mmHg 71%
    03:00 -6°C° 0 mm 5 mps 720 mmHg 72%
    04:00 -7°C° 0 mm 5 mps 720 mmHg 72%
    05:00 -7°C° 0 mm 4 mps 720 mmHg 73%
    06:00 -7°C° 0 mm 4 mps 720 mmHg 74%
    07:00 -6°C° 0 mm 3 mps 720 mmHg 75%
    08:00 -5°C° 0 mm 3 mps 720 mmHg 71%
    09:00 -4°C° 0 mm 3 mps 720 mmHg 67%
    10:00 -2°C° 0 mm 4 mps 720 mmHg 63%
    11:00 0°C° 0 mm 3 mps 720 mmHg 61%
    12:00 0°C° 0 mm 3 mps 719 mmHg 60%
    13:00 +2°C° 0 mm 2 mps 719 mmHg 58%
    14:00 +2°C° 0 mm 2 mps 718 mmHg 63%
    15:00 +2°C° 0 mm 1 mps 718 mmHg 69%
    16:00 +1°C° 0 mm 1 mps 717 mmHg 74%
    17:00 0°C° 0 mm 1 mps 717 mmHg 77%
    18:00 -1°C° 0 mm 1 mps 717 mmHg 79%
    19:00 -1°C° 0 mm 1 mps 717 mmHg 82%
    20:00 -3°C° 0 mm 2 mps 716 mmHg 82%
    21:00 -4°C° 0 mm 2 mps 716 mmHg 82%
    22:00 -4°C° 0 mm 2 mps 716 mmHg 82%
    23:00 -3°C° 0 mm 2 mps 715 mmHg 82%
    Show more